Regional Weather Roundup
Issued by NWS Albany, NY

Home | Current Version | Previous Version | Text Only | Print | Product List | Glossary On
Versions: 1 2 3 4 5 6 7 8 9 10 11 12 13 14 15 16 17 18 19 20 21 22 23 24 25 26 27 28 29 30 31 32 33 34 35 36 37 38 39 40 41 42 43 44 45 46 47 48 49 50
487
ASUS41 KALY 261510
RWRALY

NEW YORK STATE HOURLY WEATHER ROUNDUP
NATIONAL WEATHER SERVICE ALBANY NY
1100 AM EDT FRI MAY 26 2017

NOTE: "FAIR" INDICATES FEW OR NO CLOUDS BELOW 12,000 FEET WITH NO
SIGNIFICANT WEATHER AND/OR NO OBSTRUCTIONS TO VISIBILITY.

NYZ032-033-038>043-046>054-057>066-NYZ062>081-082-084-261600-
EAST


CITY           SKY/WX    TMP DP  RH WIND       PRES   REMARKS
ALBANY         LGT RAIN  58  53  84 NW8       29.57S
GLENS FALLS    LGT RAIN  57  51  80 N3        29.55F
POUGHKEEPSIE   CLOUDY    58  54  86 VRB5      29.57R
NEWBURGH       CLOUDY    61  59  94 W12       29.59F
MONTGOMERY     PTSUNNY   66  60  81 W8        29.57S
WHITE PLAINS   PTSUNNY   63  57  81 NW12      29.57S
ISLIP          CLOUDY    63  56  78 W8        29.57S
NEW YORK CITY  PTSUNNY   67  57  70 W8        29.58S
CENTRAL PARK   CLOUDY    64  59  83 MISG      29.61F
$$

NYZ005>009-017-018-044>046-055-056-261600-
CENTRAL


CITY           SKY/WX    TMP DP  RH WIND       PRES   REMARKS
FULTON         CLOUDY    58  55  90 NW10      29.64R
SYRACUSE       CLOUDY    57  55  94 W13       29.62R
ROME           CLOUDY    58  54  86 W7        29.61R
ELMIRA         CLOUDY    62  52  69 W9        29.66R
BINGHAMTON     LGT RAIN  56  52  86 W14G24    29.64R
MONTICELLO     CLOUDY    57  55  94 W10G18    29.62R
$$

NYZ026>034-041>043-087-261600-
NORTH


CITY           SKY/WX    TMP DP  RH WIND       PRES   REMARKS
WATERTOWN      LGT RAIN  58  56  93 N9        29.63R FOG
FORT DRUM      NOT AVBL
OGDENSBURG     CLOUDY    55  54  94 NE6       29.63R FOG
MASSENA        CLOUDY    55  53  93 N8        29.63S
SARANAC LAKE   CLOUDY    52  51  97 N6        29.57S
PLATTSBURGH    LGT RAIN  55  52  89 N12       29.57R
$$

NYZ001>004-010>016-019>021-085-261600-
WEST


CITY           SKY/WX    TMP DP  RH WIND       PRES   REMARKS
NIAGARA FALLS  CLOUDY    59  55  87 W9        29.71R FOG
BUFFALO        LGT RAIN  57  54  89 W6        29.72R FOG
DUNKIRK        LGT RAIN  55  54  96 W9        29.75R FOG
JAMESTOWN      CLOUDY    55  52  88 W15G22    29.75R
WELLSVILLE     LGT RAIN  56  51  84 NW16      29.72R
ROCHESTER      CLOUDY    58  55  90 NW10      29.69R
PENN YAN       CLOUDY    62  51  67 W8        29.66S
$$

             KEY
       WCI = WIND CHILL INDEX
       VSB = VISIBILITY
       HX  = HEAT INDEX
$$




USA.gov is the U.S. government's official web portal to all federal, state and local government web resources and services.